Time,TemperatureF,DewpointF,PressureIn,WindDirection,WindDirectionDegrees,WindSpeedMPH,WindSpeedGustMPH,Humidity,HourlyPrecipIn,Conditions,Clouds,dailyrainin,SoftwareType,DateUTC
2013-08-21 00:00:00,73.2,69.8,30.07,SE,143,0.0,0.0,89,0.00,,,0.12,Wunderground v.1.15,2013-08-21 04:00:00,
2013-08-21 00:05:00,73.2,69.8,30.07,SE,143,0.0,0.0,89,0.00,,,0.00,Wunderground v.1.15,2013-08-21 04:05:00,
2013-08-21 00:10:00,73.2,69.8,30.07,SE,143,0.0,0.0,89,0.00,,,0.00,Wunderground v.1.15,2013-08-21 04:10:00,
2013-08-21 00:15:00,73.2,69.8,30.07,SE,143,0.0,0.0,89,0.00,,,0.00,Wunderground v.1.15,2013-08-21 04:15:00,
2013-08-21 00:20:00,73.0,69.6,30.07,SE,143,0.0,0.0,89,0.00,,,0.00,Wunderground v.1.15,2013-08-21 04:20:00,
2013-08-21 00:25:00,73.0,69.6,30.07,SE,143,0.0,0.0,89,0.00,,,0.00,Wunderground v.1.15,2013-08-21 04:25:00,
2013-08-21 00:30:00,73.0,69.9,30.07,SE,143,0.0,0.0,90,0.00,,,0.00,Wunderground v.1.15,2013-08-21 04:30:00,
2013-08-21 00:35:00,73.0,69.9,30.07,SE,143,0.0,0.0,90,0.00,,,0.01,Wunderground v.1.15,2013-08-21 04:35:00,
2013-08-21 00:45:00,73.0,69.9,30.07,SE,143,0.0,0.0,90,0.00,,,0.01,Wunderground v.1.15,2013-08-21 04:45:00,
2013-08-21 00:50:00,73.0,69.9,30.07,SE,143,0.0,0.0,90,0.00,,,0.01,Wunderground v.1.15,2013-08-21 04:50:00,
2013-08-21 00:55:00,73.0,69.9,30.07,SE,143,0.0,0.0,90,0.00,,,0.01,Wunderground v.1.15,2013-08-21 04:55:00,
2013-08-21 01:00:00,73.0,69.9,30.07,SE,143,0.0,0.0,90,0.00,,,0.01,Wunderground v.1.15,2013-08-21 05:00:00,
2013-08-21 01:05:00,73.2,70.4,30.07,SE,143,0.0,0.0,91,0.00,,,0.01,Wunderground v.1.15,2013-08-21 05:05:00,
2013-08-21 01:15:00,73.3,70.5,30.07,SE,143,0.0,0.0,91,0.00,,,0.01,Wunderground v.1.15,2013-08-21 05:15:00,
2013-08-21 01:20:00,73.5,70.7,30.07,SE,143,0.0,0.0,91,0.00,,,0.01,Wunderground v.1.15,2013-08-21 05:20:00,
2013-08-21 01:25:00,73.5,70.7,30.07,SE,143,0.0,0.0,91,0.00,,,0.01,Wunderground v.1.15,2013-08-21 05:25:00,
2013-08-21 01:30:00,73.5,70.7,30.07,SE,143,0.0,0.0,91,0.00,,,0.01,Wunderground v.1.15,2013-08-21 05:30:00,
2013-08-21 01:40:00,73.5,70.7,30.07,SE,143,0.0,0.0,91,0.00,,,0.02,Wunderground v.1.15,2013-08-21 05:40:00,
2013-08-21 01:45:00,73.3,70.5,30.07,SE,143,0.0,0.0,91,0.00,,,0.02,Wunderground v.1.15,2013-08-21 05:45:00,
2013-08-21 01:50:00,73.3,70.5,30.07,SE,143,0.0,0.0,91,0.00,,,0.02,Wunderground v.1.15,2013-08-21 05:50:00,
2013-08-21 01:55:00,73.3,70.5,30.07,SE,143,0.0,0.0,91,0.00,,,0.02,Wunderground v.1.15,2013-08-21 05:55:00,
2013-08-21 02:00:00,73.3,70.5,30.07,SE,143,0.0,0.0,91,0.00,,,0.02,Wunderground v.1.15,2013-08-21 06:00:00,
2013-08-21 02:05:00,73.2,70.4,30.07,SE,143,0.0,0.0,91,0.00,,,0.02,Wunderground v.1.15,2013-08-21 06:05:00,
2013-08-21 02:15:00,73.0,70.2,30.07,SE,143,0.0,0.0,91,0.00,,,0.02,Wunderground v.1.15,2013-08-21 06:15:00,
2013-08-21 02:20:00,72.8,70.0,30.07,SE,143,0.0,0.0,91,0.00,,,0.02,Wunderground v.1.15,2013-08-21 06:20:00,
2013-08-21 02:25:00,72.8,70.0,30.07,SE,143,0.0,0.0,91,0.00,,,0.02,Wunderground v.1.15,2013-08-21 06:25:00,
2013-08-21 02:30:00,73.0,70.2,30.07,SE,143,0.0,0.0,91,0.00,,,0.02,Wunderground v.1.15,2013-08-21 06:30:00,
2013-08-21 02:35:00,73.0,70.2,30.07,SE,143,0.0,0.0,91,0.00,,,0.02,Wunderground v.1.15,2013-08-21 06:35:00,
2013-08-21 02:45:00,72.8,70.0,30.07,SE,143,0.0,0.0,91,0.00,,,0.03,Wunderground v.1.15,2013-08-21 06:45:00,
2013-08-21 02:50:00,72.8,70.0,30.07,SE,143,0.0,0.0,91,0.00,,,0.03,Wunderground v.1.15,2013-08-21 06:50:00,
2013-08-21 02:55:00,72.8,70.0,30.07,SE,143,0.0,0.0,91,0.00,,,0.03,Wunderground v.1.15,2013-08-21 06:55:00,
2013-08-21 03:00:00,72.8,70.0,30.07,SE,143,0.0,0.0,91,0.00,,,0.03,Wunderground v.1.15,2013-08-21 07:00:00,
2013-08-21 03:05:00,72.7,70.2,30.07,SE,143,0.0,0.0,92,0.00,,,0.03,Wunderground v.1.15,2013-08-21 07:05:00,
2013-08-21 03:15:00,72.7,70.2,30.07,SE,143,0.0,0.0,92,0.00,,,0.03,Wunderground v.1.15,2013-08-21 07:15:00,
2013-08-21 03:20:00,72.8,70.3,30.07,SE,143,0.0,0.0,92,0.00,,,0.03,Wunderground v.1.15,2013-08-21 07:20:00,
2013-08-21 03:25:00,72.8,70.3,30.07,SE,143,0.0,0.0,92,0.00,,,0.03,Wunderground v.1.15,2013-08-21 07:25:00,
2013-08-21 03:30:00,72.7,70.2,30.07,SE,143,0.0,0.0,92,0.00,,,0.03,Wunderground v.1.15,2013-08-21 07:30:00,
2013-08-21 03:35:00,72.7,70.2,30.07,SE,143,0.0,0.0,92,0.00,,,0.03,Wunderground v.1.15,2013-08-21 07:35:00,
2013-08-21 03:45:00,72.7,70.2,30.07,SE,143,0.0,0.0,92,0.00,,,0.03,Wunderground v.1.15,2013-08-21 07:45:00,
2013-08-21 03:50:00,72.7,70.2,30.07,SE,143,0.0,0.0,92,0.00,,,0.04,Wunderground v.1.15,2013-08-21 07:50:00,
2013-08-21 04:00:00,72.3,69.8,30.07,SE,143,0.0,0.0,92,0.00,,,0.04,Wunderground v.1.15,2013-08-21 08:00:00,
2013-08-21 04:05:00,72.3,69.8,30.07,SE,143,0.0,0.0,92,0.00,,,0.04,Wunderground v.1.15,2013-08-21 08:05:00,
2013-08-21 04:15:00,72.1,69.6,30.07,SE,143,0.0,0.0,92,0.00,,,0.04,Wunderground v.1.15,2013-08-21 08:15:00,
2013-08-21 04:20:00,72.3,69.8,30.07,SE,143,0.0,0.0,92,0.00,,,0.04,Wunderground v.1.15,2013-08-21 08:20:00,
2013-08-21 04:30:00,72.1,69.6,30.07,SE,143,0.0,0.0,92,0.00,,,0.04,Wunderground v.1.15,2013-08-21 08:30:00,
2013-08-21 04:35:00,72.1,69.6,30.07,SE,143,0.0,0.0,92,0.00,,,0.04,Wunderground v.1.15,2013-08-21 08:35:00,
2013-08-21 04:45:00,72.1,69.6,30.07,SE,143,0.0,0.0,92,0.00,,,0.04,Wunderground v.1.15,2013-08-21 08:45:00,
2013-08-21 04:50:00,72.1,69.6,30.07,SE,143,0.0,0.0,92,0.00,,,0.04,Wunderground v.1.15,2013-08-21 08:50:00,
2013-08-21 04:55:00,72.5,70.0,30.07,SE,143,0.0,0.0,92,0.00,,,0.04,Wunderground v.1.15,2013-08-21 08:55:00,
2013-08-21 05:00:00,72.8,70.3,30.07,SE,143,0.0,0.0,92,0.00,,,0.04,Wunderground v.1.15,2013-08-21 09:00:00,
2013-08-21 05:05:00,72.8,70.3,30.07,SE,143,0.0,0.0,92,0.00,,,0.04,Wunderground v.1.15,2013-08-21 09:05:00,
2013-08-21 05:15:00,72.7,70.2,30.07,SE,143,0.0,0.0,92,0.00,,,0.04,Wunderground v.1.15,2013-08-21 09:15:00,
2013-08-21 05:20:00,72.7,70.2,30.07,SE,143,0.0,0.0,92,0.00,,,0.04,Wunderground v.1.15,2013-08-21 09:20:00,
2013-08-21 05:25:00,72.7,70.2,30.07,SE,143,0.0,0.0,92,0.00,,,0.04,Wunderground v.1.15,2013-08-21 09:25:00,
2013-08-21 05:30:00,72.3,69.8,30.07,SE,143,0.0,0.0,92,0.00,,,0.04,Wunderground v.1.15,2013-08-21 09:30:00,
2013-08-21 05:35:00,72.1,69.6,30.07,SE,143,0.0,0.0,92,0.00,,,0.05,Wunderground v.1.15,2013-08-21 09:35:00,
2013-08-21 05:40:00,72.0,69.5,30.07,SE,143,0.0,0.0,92,0.00,,,0.05,Wunderground v.1.15,2013-08-21 09:40:00,
2013-08-21 05:45:00,71.6,69.2,30.07,SE,143,0.0,0.0,92,0.00,,,0.05,Wunderground v.1.15,2013-08-21 09:45:00,
2013-08-21 05:50:00,71.5,69.1,30.07,SE,143,0.0,0.0,92,0.00,,,0.05,Wunderground v.1.15,2013-08-21 09:50:00,
2013-08-21 05:55:00,71.3,68.9,30.07,SE,143,0.0,0.0,92,0.00,,,0.05,Wunderground v.1.15,2013-08-21 09:55:00,
2013-08-21 06:05:00,71.3,68.9,30.07,SE,143,0.0,0.0,92,0.00,,,0.05,Wunderground v.1.15,2013-08-21 10:05:00,
2013-08-21 06:15:00,70.6,68.2,30.07,SE,143,0.0,0.0,92,0.00,,,0.05,Wunderground v.1.15,2013-08-21 10:15:00,
2013-08-21 06:20:00,70.4,68.0,30.08,SE,143,0.0,0.0,92,0.00,,,0.05,Wunderground v.1.15,2013-08-21 10:20:00,
2013-08-21 06:25:00,70.6,68.2,30.08,SE,143,0.0,0.0,92,0.00,,,0.05,Wunderground v.1.15,2013-08-21 10:25:00,
2013-08-21 06:30:00,70.9,68.8,30.08,SE,143,0.0,0.0,93,0.00,,,0.05,Wunderground v.1.15,2013-08-21 10:30:00,
2013-08-21 06:35:00,71.3,69.2,30.08,SE,143,0.0,0.0,93,0.00,,,0.05,Wunderground v.1.15,2013-08-21 10:35:00,
2013-08-21 06:40:00,71.3,69.2,30.08,SE,143,0.0,0.0,93,0.00,,,0.05,Wunderground v.1.15,2013-08-21 10:40:00,
2013-08-21 06:50:00,71.5,69.1,30.09,SE,143,0.0,0.0,92,0.00,,,0.05,Wunderground v.1.15,2013-08-21 10:50:00,
2013-08-21 06:55:00,71.1,68.7,30.09,SE,143,0.0,0.0,92,0.00,,,0.05,Wunderground v.1.15,2013-08-21 10:55:00,
2013-08-21 07:00:00,70.8,68.4,30.09,SE,143,0.0,0.0,92,0.00,,,0.05,Wunderground v.1.15,2013-08-21 11:00:00,
2013-08-21 07:05:00,71.1,68.7,30.09,SE,143,0.0,0.0,92,0.00,,,0.05,Wunderground v.1.15,2013-08-21 11:05:00,
2013-08-21 07:15:00,71.8,69.7,30.09,SE,143,0.0,0.0,93,0.00,,,0.05,Wunderground v.1.15,2013-08-21 11:15:00,
2013-08-21 07:20:00,72.0,69.9,30.10,SE,143,0.0,0.0,93,0.00,,,0.05,Wunderground v.1.15,2013-08-21 11:20:00,
2013-08-21 07:25:00,72.1,70.0,30.10,SE,143,0.0,0.0,93,0.00,,,0.05,Wunderground v.1.15,2013-08-21 11:25:00,
2013-08-21 07:30:00,72.3,70.2,30.10,SE,143,0.0,0.0,93,0.00,,,0.05,Wunderground v.1.15,2013-08-21 11:30:00,
2013-08-21 07:35:00,72.7,70.6,30.10,SE,143,0.0,0.0,93,0.00,,,0.05,Wunderground v.1.15,2013-08-21 11:35:00,
2013-08-21 07:45:00,73.0,70.9,30.10,SE,143,0.0,0.0,93,0.00,,,0.05,Wunderground v.1.15,2013-08-21 11:45:00,
2013-08-21 07:50:00,73.0,70.9,30.10,SE,143,0.0,0.0,93,0.00,,,0.05,Wunderground v.1.15,2013-08-21 11:50:00,
2013-08-21 08:00:00,73.3,71.2,30.10,SE,143,0.0,0.0,93,0.00,,,0.05,Wunderground v.1.15,2013-08-21 12:00:00,
2013-08-21 08:05:00,73.7,71.5,30.10,SE,143,0.0,0.0,93,0.00,,,0.05,Wunderground v.1.15,2013-08-21 12:05:00,
2013-08-21 08:15:00,74.0,71.8,30.10,SE,143,0.0,1.0,93,0.00,,,0.05,Wunderground v.1.15,2013-08-21 12:15:00,
2013-08-21 08:20:00,74.4,72.2,30.10,SE,143,0.0,2.0,93,0.00,,,0.05,Wunderground v.1.15,2013-08-21 12:20:00,
2013-08-21 08:25:00,74.4,72.2,30.10,SE,143,0.0,2.0,93,0.00,,,0.05,Wunderground v.1.15,2013-08-21 12:25:00,
2013-08-21 08:30:00,74.6,72.1,30.10,SE,143,0.0,0.0,92,0.00,,,0.05,Wunderground v.1.15,2013-08-21 12:30:00,
2013-08-21 08:35:00,74.7,72.2,30.11,SE,143,0.0,0.0,92,0.00,,,0.05,Wunderground v.1.15,2013-08-21 12:35:00,
2013-08-21 08:45:00,74.9,72.1,30.11,SE,143,0.0,1.0,91,0.00,,,0.05,Wunderground v.1.15,2013-08-21 12:45:00,
2013-08-21 08:50:00,75.3,72.5,30.11,SE,143,0.0,0.0,91,0.00,,,0.05,Wunderground v.1.15,2013-08-21 12:50:00,
2013-08-21 08:55:00,75.1,71.6,30.11,SW,224,1.0,1.0,89,0.00,,,0.05,Wunderground v.1.15,2013-08-21 12:55:00,
2013-08-21 09:00:00,75.3,71.5,30.11,SW,224,1.0,1.0,88,0.00,,,0.05,Wunderground v.1.15,2013-08-21 13:00:00,
2013-08-21 09:05:00,75.8,71.3,30.11,South,175,0.0,1.0,86,0.00,,,0.05,Wunderground v.1.15,2013-08-21 13:05:00,
2013-08-21 09:15:00,76.0,70.8,30.11,SSW,210,2.0,6.0,84,0.00,,,0.05,Wunderground v.1.15,2013-08-21 13:15:00,
2013-08-21 09:20:00,76.1,70.6,30.11,SSW,203,1.0,1.0,83,0.00,,,0.05,Wunderground v.1.15,2013-08-21 13:20:00,
2013-08-21 09:25:00,76.5,70.6,30.11,SW,216,0.0,1.0,82,0.00,,,0.05,Wunderground v.1.15,2013-08-21 13:25:00,
2013-08-21 09:30:00,76.5,70.2,30.11,SSW,213,0.0,1.0,81,0.00,,,0.05,Wunderground v.1.15,2013-08-21 13:30:00,
2013-08-21 09:35:00,76.7,70.4,30.11,SW,233,1.0,2.0,81,0.00,,,0.05,Wunderground v.1.15,2013-08-21 13:35:00,
2013-08-21 09:45:00,77.0,69.6,30.11,SSW,199,1.0,1.0,78,0.00,,,0.05,Wunderground v.1.15,2013-08-21 13:45:00,
2013-08-21 09:50:00,77.6,70.2,30.10,SSE,151,0.0,0.0,78,0.00,,,0.05,Wunderground v.1.15,2013-08-21 13:50:00,
2013-08-21 09:55:00,77.6,69.4,30.10,SSW,210,1.0,1.0,76,0.00,,,0.05,Wunderground v.1.15,2013-08-21 13:55:00,
2013-08-21 10:00:00,78.1,70.3,30.10,SSW,193,0.0,0.0,77,0.00,,,0.05,Wunderground v.1.15,2013-08-21 14:00:00,
2013-08-21 10:05:00,78.1,69.5,30.11,SSW,209,0.0,0.0,75,0.00,,,0.05,Wunderground v.1.15,2013-08-21 14:05:00,
2013-08-21 10:15:00,78.3,69.3,30.11,SW,217,1.0,1.0,74,0.00,,,0.05,Wunderground v.1.15,2013-08-21 14:15:00,
2013-08-21 10:20:00,78.5,69.9,30.11,SSE,154,1.0,1.0,75,0.00,,,0.05,Wunderground v.1.15,2013-08-21 14:20:00,
2013-08-21 10:25:00,78.6,70.0,30.11,SSW,203,1.0,1.0,75,0.00,,,0.05,Wunderground v.1.15,2013-08-21 14:25:00,
2013-08-21 10:30:00,78.6,69.6,30.11,SSW,196,1.0,1.0,74,0.00,,,0.05,Wunderground v.1.15,2013-08-21 14:30:00,
2013-08-21 10:35:00,78.6,69.6,30.11,SW,226,1.0,1.0,74,0.00,,,0.05,Wunderground v.1.15,2013-08-21 14:35:00,
2013-08-21 10:45:00,79.4,70.0,30.11,SSW,206,1.0,2.0,73,0.00,,,0.05,Wunderground v.1.15,2013-08-21 14:45:00,
2013-08-21 10:50:00,79.8,69.6,30.11,South,191,1.0,1.0,71,0.00,,,0.05,Wunderground v.1.15,2013-08-21 14:50:00,
2013-08-21 10:55:00,79.9,68.8,30.11,SW,216,1.0,1.0,69,0.00,,,0.05,Wunderground v.1.15,2013-08-21 14:55:00,
2013-08-21 11:00:00,80.3,69.2,30.11,WSW,256,1.0,3.0,69,0.00,,,0.05,Wunderground v.1.15,2013-08-21 15:00:00,
2013-08-21 11:05:00,80.5,69.4,30.11,SSW,209,1.0,3.0,69,0.00,,,0.05,Wunderground v.1.15,2013-08-21 15:05:00,
2013-08-21 11:15:00,81.1,70.0,30.11,SSW,203,0.0,1.0,69,0.00,,,0.05,Wunderground v.1.15,2013-08-21 15:15:00,
2013-08-21 11:25:00,81.8,70.6,30.11,SW,219,0.0,0.0,69,0.00,,,0.05,Wunderground v.1.15,2013-08-21 15:25:00,
2013-08-21 11:30:00,82.2,70.6,30.11,SW,220,0.0,0.0,68,0.00,,,0.05,Wunderground v.1.15,2013-08-21 15:30:00,
2013-08-21 11:35:00,82.2,70.6,30.10,SSW,203,1.0,1.0,68,0.00,,,0.05,Wunderground v.1.15,2013-08-21 15:35:00,
2013-08-21 11:40:00,82.2,70.1,30.10,SSW,203,0.0,2.0,67,0.00,,,0.05,Wunderground v.1.15,2013-08-21 15:40:00,
2013-08-21 11:45:00,82.6,70.1,30.10,SW,226,1.0,2.0,66,0.00,,,0.05,Wunderground v.1.15,2013-08-21 15:45:00,
2013-08-21 11:50:00,82.6,70.5,30.10,SSW,212,1.0,1.0,67,0.00,,,0.05,Wunderground v.1.15,2013-08-21 15:50:00,
2013-08-21 12:00:00,82.6,70.5,30.10,SW,217,2.0,2.0,67,0.00,,,0.05,Wunderground v.1.15,2013-08-21 16:00:00,
2013-08-21 12:05:00,82.4,70.3,30.10,SSW,206,2.0,2.0,67,0.00,,,0.05,Wunderground v.1.15,2013-08-21 16:05:00,
2013-08-21 12:15:00,83.2,71.1,30.10,SSE,150,1.0,2.0,67,0.00,,,0.05,Wunderground v.1.15,2013-08-21 16:15:00,
2013-08-21 12:20:00,83.8,70.8,30.10,SE,145,1.0,1.0,65,0.00,,,0.05,Wunderground v.1.15,2013-08-21 16:20:00,
2013-08-21 12:30:00,84.0,69.6,30.10,SSE,148,3.0,3.0,62,0.00,,,0.05,Wunderground v.1.15,2013-08-21 16:30:00,
2013-08-21 12:35:00,84.1,69.7,30.09,SSE,160,2.0,3.0,62,0.00,,,0.05,Wunderground v.1.15,2013-08-21 16:35:00,
2013-08-21 12:45:00,84.1,69.2,30.09,SW,227,3.0,7.0,61,0.00,,,0.05,Wunderground v.1.15,2013-08-21 16:45:00,
2013-08-21 12:50:00,84.1,69.2,30.10,SW,232,3.0,7.0,61,0.00,,,0.05,Wunderground v.1.15,2013-08-21 16:50:00,
2013-08-21 12:55:00,84.0,69.1,30.10,SW,236,4.0,7.0,61,0.00,,,0.05,Wunderground v.1.15,2013-08-21 16:55:00,
2013-08-21 13:05:00,84.1,67.7,30.09,SW,215,3.0,4.0,58,0.00,,,0.05,Wunderground v.1.15,2013-08-21 17:05:00,
2013-08-21 13:15:00,84.7,68.3,30.09,SSE,160,2.0,2.0,58,0.00,,,0.05,Wunderground v.1.15,2013-08-21 17:15:00,
2013-08-21 13:20:00,84.9,69.5,30.09,SW,224,2.0,4.0,60,0.00,,,0.05,Wunderground v.1.15,2013-08-21 17:20:00,
2013-08-21 13:25:00,85.1,68.7,30.09,SW,216,2.0,5.0,58,0.00,,,0.05,Wunderground v.1.15,2013-08-21 17:25:00,
2013-08-21 13:30:00,85.1,68.7,30.09,SE,133,2.0,2.0,58,0.00,,,0.05,Wunderground v.1.15,2013-08-21 17:30:00,
2013-08-21 13:40:00,85.1,68.7,30.08,SSW,196,3.0,3.0,58,0.00,,,0.05,Wunderground v.1.15,2013-08-21 17:40:00,
2013-08-21 13:45:00,84.9,69.0,30.08,SE,134,3.0,3.0,59,0.00,,,0.05,Wunderground v.1.15,2013-08-21 17:45:00,
2013-08-21 13:50:00,84.9,65.9,30.08,SSE,148,2.0,2.0,53,0.00,,,0.05,Wunderground v.1.15,2013-08-21 17:50:00,
2013-08-21 13:55:00,85.1,67.1,30.08,South,169,2.0,5.0,55,0.00,,,0.05,Wunderground v.1.15,2013-08-21 17:55:00,
2013-08-21 14:00:00,85.1,67.6,30.08,SSE,148,2.0,5.0,56,0.00,,,0.05,Wunderground v.1.15,2013-08-21 18:00:00,
2013-08-21 14:05:00,85.3,67.8,30.07,SSE,161,2.0,5.0,56,0.00,,,0.05,Wunderground v.1.15,2013-08-21 18:05:00,
2013-08-21 14:15:00,84.9,66.9,30.07,SSE,158,2.0,2.0,55,0.00,,,0.05,Wunderground v.1.15,2013-08-21 18:15:00,
2013-08-21 14:20:00,85.1,69.2,30.07,WSW,237,1.0,3.0,59,0.00,,,0.05,Wunderground v.1.15,2013-08-21 18:20:00,
2013-08-21 14:25:00,85.3,67.8,30.07,SSE,155,1.0,3.0,56,0.00,,,0.05,Wunderground v.1.15,2013-08-21 18:25:00,
2013-08-21 14:30:00,85.3,66.8,30.07,South,188,1.0,1.0,54,0.00,,,0.05,Wunderground v.1.15,2013-08-21 18:30:00,
2013-08-21 14:35:00,85.7,68.2,30.06,South,175,1.0,1.0,56,0.00,,,0.05,Wunderground v.1.15,2013-08-21 18:35:00,
2013-08-21 14:40:00,85.5,68.0,30.06,SE,141,1.0,1.0,56,0.00,,,0.05,Wunderground v.1.15,2013-08-21 18:40:00,
2013-08-21 14:50:00,85.5,68.0,30.06,South,176,1.0,1.0,56,0.00,,,0.05,Wunderground v.1.15,2013-08-21 18:50:00,
2013-08-21 14:55:00,85.3,67.8,30.06,SSE,162,2.0,2.0,56,0.00,,,0.05,Wunderground v.1.15,2013-08-21 18:55:00,
2013-08-21 15:00:00,85.3,69.3,30.06,ESE,120,2.0,6.0,59,0.00,,,0.05,Wunderground v.1.15,2013-08-21 19:00:00,
2013-08-21 15:05:00,84.9,69.0,30.05,SSE,150,2.0,6.0,59,0.00,,,0.05,Wunderground v.1.15,2013-08-21 19:05:00,
2013-08-21 15:15:00,85.3,70.3,30.05,SE,145,1.0,1.0,61,0.00,,,0.05,Wunderground v.1.15,2013-08-21 19:15:00,
2013-08-21 15:20:00,85.1,70.1,30.04,SSE,148,1.0,1.0,61,0.00,,,0.05,Wunderground v.1.15,2013-08-21 19:20:00,
2013-08-21 15:25:00,85.3,69.3,30.04,SW,229,1.0,1.0,59,0.00,,,0.05,Wunderground v.1.15,2013-08-21 19:25:00,
2013-08-21 15:30:00,85.7,69.2,30.04,SE,145,1.0,1.0,58,0.00,,,0.05,Wunderground v.1.15,2013-08-21 19:30:00,
2013-08-21 15:35:00,85.7,70.7,30.04,South,181,2.0,2.0,61,0.00,,,0.05,Wunderground v.1.15,2013-08-21 19:35:00,
2013-08-21 15:45:00,85.3,70.3,30.04,SSE,150,1.0,5.0,61,0.00,,,0.05,Wunderground v.1.15,2013-08-21 19:45:00,
2013-08-21 15:50:00,84.9,70.4,30.03,SSE,157,1.0,1.0,62,0.00,,,0.05,Wunderground v.1.15,2013-08-21 19:50:00,
2013-08-21 15:55:00,84.9,70.4,30.03,SSE,147,1.0,6.0,62,0.00,,,0.05,Wunderground v.1.15,2013-08-21 19:55:00,
2013-08-21 16:00:00,84.9,69.9,30.03,SSE,147,1.0,2.0,61,0.00,,,0.05,Wunderground v.1.15,2013-08-21 20:00:00,
2013-08-21 16:05:00,84.9,69.9,30.03,SE,141,1.0,2.0,61,0.00,,,0.05,Wunderground v.1.15,2013-08-21 20:05:00,
2013-08-21 16:15:00,84.7,70.2,30.03,ESE,123,1.0,1.0,62,0.00,,,0.05,Wunderground v.1.15,2013-08-21 20:15:00,
2013-08-21 16:20:00,84.5,70.5,30.02,SE,140,1.0,3.0,63,0.00,,,0.05,Wunderground v.1.15,2013-08-21 20:20:00,
2013-08-21 16:30:00,84.9,70.9,30.02,SE,140,1.0,2.0,63,0.00,,,0.05,Wunderground v.1.15,2013-08-21 20:30:00,
2013-08-21 16:35:00,85.1,71.1,30.02,SW,222,1.0,6.0,63,0.00,,,0.05,Wunderground v.1.15,2013-08-21 20:35:00,
2013-08-21 16:40:00,85.3,70.8,30.02,SSE,154,1.0,1.0,62,0.00,,,0.05,Wunderground v.1.15,2013-08-21 20:40:00,
2013-08-21 16:45:00,85.1,70.6,30.02,SSE,150,1.0,1.0,62,0.00,,,0.05,Wunderground v.1.15,2013-08-21 20:45:00,
2013-08-21 16:50:00,85.1,70.6,30.02,SSE,147,1.0,1.0,62,0.00,,,0.05,Wunderground v.1.15,2013-08-21 20:50:00,
2013-08-21 17:00:00,85.1,70.6,30.02,SSE,151,1.0,1.0,62,0.00,,,0.05,Wunderground v.1.15,2013-08-21 21:00:00,
2013-08-21 17:05:00,84.9,70.4,30.01,SSE,154,0.0,1.0,62,0.00,,,0.05,Wunderground v.1.15,2013-08-21 21:05:00,
2013-08-21 17:15:00,84.5,70.0,30.01,SSE,148,1.0,1.0,62,0.00,,,0.05,Wunderground v.1.15,2013-08-21 21:15:00,
2013-08-21 17:20:00,84.3,69.9,30.01,SSE,151,0.0,0.0,62,0.00,,,0.05,Wunderground v.1.15,2013-08-21 21:20:00,
2013-08-21 17:25:00,84.1,70.6,30.01,SSE,155,0.0,0.0,64,0.00,,,0.05,Wunderground v.1.15,2013-08-21 21:25:00,
2013-08-21 17:30:00,84.0,70.0,30.01,SSE,154,0.0,4.0,63,0.00,,,0.05,Wunderground v.1.15,2013-08-21 21:30:00,
2013-08-21 17:35:00,84.0,70.5,30.01,SSE,164,1.0,4.0,64,0.00,,,0.05,Wunderground v.1.15,2013-08-21 21:35:00,
2013-08-21 17:45:00,83.8,70.3,30.01,SE,143,0.0,5.0,64,0.00,,,0.05,Wunderground v.1.15,2013-08-21 21:45:00,
2013-08-21 17:50:00,83.4,69.9,30.01,SE,141,1.0,1.0,64,0.00,,,0.05,Wunderground v.1.15,2013-08-21 21:50:00,
2013-08-21 17:55:00,83.2,69.8,30.01,SE,141,1.0,1.0,64,0.00,,,0.05,Wunderground v.1.15,2013-08-21 21:55:00,
2013-08-21 18:00:00,83.0,70.0,30.01,SE,143,1.0,1.0,65,0.00,,,0.05,Wunderground v.1.15,2013-08-21 22:00:00,
2013-08-21 18:05:00,83.0,70.0,30.01,SE,136,1.0,1.0,65,0.00,,,0.05,Wunderground v.1.15,2013-08-21 22:05:00,
2013-08-21 18:15:00,83.0,70.0,30.01,SSE,150,0.0,2.0,65,0.00,,,0.05,Wunderground v.1.15,2013-08-21 22:15:00,
2013-08-21 18:20:00,82.6,69.6,30.01,SE,143,0.0,0.0,65,0.00,,,0.05,Wunderground v.1.15,2013-08-21 22:20:00,
2013-08-21 18:25:00,82.6,70.5,30.01,SSE,151,1.0,1.0,67,0.00,,,0.05,Wunderground v.1.15,2013-08-21 22:25:00,
2013-08-21 18:30:00,82.6,70.5,30.01,SSE,157,1.0,1.0,67,0.00,,,0.05,Wunderground v.1.15,2013-08-21 22:30:00,
2013-08-21 18:40:00,81.8,70.2,30.01,SSE,158,0.0,6.0,68,0.00,,,0.05,Wunderground v.1.15,2013-08-21 22:40:00,
2013-08-21 18:45:00,81.2,69.2,30.01,SSE,150,2.0,6.0,67,0.00,,,0.05,Wunderground v.1.15,2013-08-21 22:45:00,
2013-08-21 18:50:00,81.1,69.5,30.01,SE,144,2.0,6.0,68,0.00,,,0.05,Wunderground v.1.15,2013-08-21 22:50:00,
2013-08-21 18:55:00,81.1,69.5,30.01,SE,145,1.0,6.0,68,0.00,,,0.05,Wunderground v.1.15,2013-08-21 22:55:00,
2013-08-21 19:00:00,80.9,69.3,30.01,SE,136,0.0,0.0,68,0.00,,,0.05,Wunderground v.1.15,2013-08-21 23:00:00,
2013-08-21 19:05:00,80.5,69.0,30.01,SE,137,0.0,0.0,68,0.00,,,0.05,Wunderground v.1.15,2013-08-21 23:05:00,
2013-08-21 19:15:00,80.3,69.2,30.01,SE,141,0.0,0.0,69,0.00,,,0.05,Wunderground v.1.15,2013-08-21 23:15:00,
2013-08-21 19:20:00,79.9,68.8,30.01,SE,143,0.0,0.0,69,0.00,,,0.05,Wunderground v.1.15,2013-08-21 23:20:00,
2013-08-21 19:25:00,79.8,68.7,30.01,SSE,161,0.0,0.0,69,0.00,,,0.05,Wunderground v.1.15,2013-08-21 23:25:00,
2013-08-21 19:30:00,79.4,68.3,30.01,SE,144,0.0,0.0,69,0.00,,,0.05,Wunderground v.1.15,2013-08-21 23:30:00,
2013-08-21 19:35:00,79.0,68.0,30.00,SE,144,0.0,0.0,69,0.00,,,0.05,Wunderground v.1.15,2013-08-21 23:35:00,
2013-08-21 19:45:00,78.6,67.6,30.00,SE,144,0.0,0.0,69,0.00,,,0.05,Wunderground v.1.15,2013-08-21 23:45:00,
2013-08-21 19:50:00,78.5,67.9,30.00,SE,143,1.0,1.0,70,0.00,,,0.05,Wunderground v.1.15,2013-08-21 23:50:00,
2013-08-21 19:55:00,78.5,67.9,30.00,SE,144,1.0,1.0,70,0.00,,,0.05,Wunderground v.1.15,2013-08-21 23:55:00,
2013-08-21 20:00:00,78.1,67.9,30.00,SE,144,0.0,0.0,71,0.00,,,0.05,Wunderground v.1.15,2013-08-22 00:00:00,
2013-08-21 20:05:00,78.1,68.3,30.00,SE,144,1.0,1.0,72,0.00,,,0.05,Wunderground v.1.15,2013-08-22 00:05:00,
2013-08-21 20:15:00,77.9,68.1,30.00,SE,144,0.0,1.0,72,0.00,,,0.05,Wunderground v.1.15,2013-08-22 00:15:00,
2013-08-21 20:25:00,77.7,68.7,30.00,SE,144,1.0,1.0,74,0.00,,,0.05,Wunderground v.1.15,2013-08-22 00:25:00,
2013-08-21 20:30:00,77.6,68.7,30.00,SE,144,0.0,0.0,74,0.00,,,0.05,Wunderground v.1.15,2013-08-22 00:30:00,
2013-08-21 20:35:00,77.6,68.7,30.00,SE,144,0.0,0.0,74,0.00,,,0.05,Wunderground v.1.15,2013-08-22 00:35:00,
2013-08-21 20:45:00,77.6,69.4,30.00,SE,145,0.0,0.0,76,0.00,,,0.05,Wunderground v.1.15,2013-08-22 00:45:00,
2013-08-21 20:50:00,77.4,69.6,30.00,SE,144,0.0,5.0,77,0.00,,,0.05,Wunderground v.1.15,2013-08-22 00:50:00,
2013-08-21 21:00:00,77.6,70.2,30.00,SE,144,0.0,0.0,78,0.00,,,0.05,Wunderground v.1.15,2013-08-22 01:00:00,
2013-08-21 21:05:00,77.6,70.2,30.00,SE,144,0.0,0.0,78,0.00,,,0.05,Wunderground v.1.15,2013-08-22 01:05:00,
2013-08-21 21:15:00,77.7,70.7,30.00,SE,141,0.0,0.0,79,0.00,,,0.05,Wunderground v.1.15,2013-08-22 01:15:00,
2013-08-21 21:20:00,77.7,71.0,30.00,SE,144,1.0,3.0,80,0.00,,,0.05,Wunderground v.1.15,2013-08-22 01:20:00,
2013-08-21 21:30:00,77.7,71.4,30.00,SE,143,2.0,2.0,81,0.00,,,0.05,Wunderground v.1.15,2013-08-22 01:30:00,
2013-08-21 21:35:00,77.7,71.4,30.00,SE,143,2.0,6.0,81,0.00,,,0.05,Wunderground v.1.15,2013-08-22 01:35:00,
2013-08-21 21:45:00,77.7,72.1,30.00,SE,137,3.0,3.0,83,0.00,,,0.05,Wunderground v.1.15,2013-08-22 01:45:00,
2013-08-21 21:50:00,77.7,72.1,30.01,SE,143,3.0,3.0,83,0.00,,,0.05,Wunderground v.1.15,2013-08-22 01:50:00,
2013-08-21 21:55:00,77.7,72.1,30.01,SE,143,2.0,3.0,83,0.00,,,0.05,Wunderground v.1.15,2013-08-22 01:55:00,
2013-08-21 22:05:00,77.7,72.5,30.01,SE,143,3.0,9.0,84,0.00,,,0.05,Wunderground v.1.15,2013-08-22 02:05:00,
2013-08-21 22:15:00,77.6,72.4,30.01,SSE,168,5.0,5.0,84,0.00,,,0.05,Wunderground v.1.15,2013-08-22 02:15:00,
2013-08-21 22:20:00,77.6,72.4,30.01,SSE,148,4.0,4.0,84,0.00,,,0.05,Wunderground v.1.15,2013-08-22 02:20:00,
2013-08-21 22:25:00,77.4,71.8,30.01,SSE,151,3.0,4.0,83,0.00,,,0.05,Wunderground v.1.15,2013-08-22 02:25:00,
2013-08-21 22:30:00,77.4,71.8,30.01,SE,145,3.0,3.0,83,0.00,,,0.05,Wunderground v.1.15,2013-08-22 02:30:00,
2013-08-21 22:40:00,77.4,71.8,30.01,SSE,151,3.0,3.0,83,0.00,,,0.05,Wunderground v.1.15,2013-08-22 02:40:00,
2013-08-21 22:45:00,77.2,71.6,30.01,SE,145,4.0,4.0,83,0.00,,,0.05,Wunderground v.1.15,2013-08-22 02:45:00,
2013-08-21 22:50:00,77.2,72.0,30.01,SSE,158,2.0,4.0,84,0.00,,,0.05,Wunderground v.1.15,2013-08-22 02:50:00,
2013-08-21 22:55:00,77.0,71.8,30.01,SE,140,2.0,4.0,84,0.00,,,0.05,Wunderground v.1.15,2013-08-22 02:55:00,
2013-08-21 23:00:00,77.0,71.8,30.01,South,171,2.0,5.0,84,0.00,,,0.05,Wunderground v.1.15,2013-08-22 03:00:00,
2013-08-21 23:05:00,77.0,72.1,30.00,SE,131,3.0,5.0,85,0.00,,,0.05,Wunderground v.1.15,2013-08-22 03:05:00,
2013-08-21 23:15:00,76.8,71.9,30.00,SE,136,2.0,2.0,85,0.00,,,0.05,Wunderground v.1.15,2013-08-22 03:15:00,
2013-08-21 23:20:00,76.8,72.3,30.00,SE,138,2.0,2.0,86,0.00,,,0.05,Wunderground v.1.15,2013-08-22 03:20:00,
2013-08-21 23:25:00,76.8,72.3,30.00,SSE,150,1.0,2.0,86,0.00,,,0.05,Wunderground v.1.15,2013-08-22 03:25:00,
2013-08-21 23:30:00,76.8,72.3,30.00,SSE,150,0.0,0.0,86,0.00,,,0.05,Wunderground v.1.15,2013-08-22 03:30:00,
2013-08-21 23:35:00,76.8,72.3,30.01,SSE,148,0.0,0.0,86,0.00,,,0.05,Wunderground v.1.15,2013-08-22 03:35:00,
2013-08-21 23:40:00,76.8,72.3,30.01,SSE,150,0.0,0.0,86,0.00,,,0.05,Wunderground v.1.15,2013-08-22 03:40:00,
2013-08-21 23:50:00,77.0,72.5,30.01,SSE,158,0.0,1.0,86,0.00,,,0.05,Wunderground v.1.15,2013-08-22 03:50:00,
2013-08-21 23:55:00,76.8,72.3,30.01,South,171,1.0,3.0,86,0.00,,,0.05,Wunderground v.1.15,2013-08-22 03:55:00,